Location: Poughquag
(41.6090°N, 73.6820°W)
Time: 03:30:14
(UTC-04:00)

Transit 2A - Pass Details

Date: 02 June 2020
Orbit: 592 x 967 km, 66.7° (Epoch: 06 July)

Event Time Altitude Azimuth Distance (km) Brightness Sun altitude
Rises 13:31:21 0° 209° (SSW) 2,996 9.4 69.1°
Reaches altitude 10° 13:33:33 10° 210° (SSW) 2,135 8.8 68.9°
Maximum altitude 13:38:25 87° 299° (WNW) 751 7.6 68.5°
Drops below altitude 10° 13:43:55 10° 30° (NNE) 2,399 8.5 67.9°
Sets 13:46:30 0° 31° (NNE) 3,397 9.1 67.7°
